sat.trackr.live / text

‹ back to catalog

KUIPER-00083

NORAD 64829 · 2025-151P

PAYLOAD ACTIVE UNKNOWN

§ Identity

Operator
Country
US
Launch date
2025-07-16
Launch site
AFETR
Launch vehicle
Mass (kg)
RCS (m²)

External: N2YO · Heavens-Above · Gunter

§ Orbital elements

Epoch: 2026-05-24T20:55:02.949888Z

Period
97.30 min
Inclination
51.9010°
Eccentricity
0.0000777
Mean motion
14.79957414 rev/d
Perigee alt
628.9 km
Apogee alt
630.0 km
Semi-major
7,007.6 km
B*
4.5851e-4
RAAN
318.7203°
Arg perigee
127.6652°
Mean anomaly
232.4381°
Rev number
4,784

§ Raw data

KUIPER-000831 64829U 25151P   26144.87156192  .00003278  00000+0  45851-3 0  99942 64829  51.9010 318.7203 0000777 127.6652 232.4381 14.79957414 47848

JSON: /api/v1/satellites/64829 · /tle

For live sub-satellite position, see the globe view (requires WebGL).

§ Visibility from observer

Set your observer location to see the next 7 days of passes ≥ 10°. The values pass through the URL so the page stays shareable.

No JS? Fill the form by hand. The geolocation button needs JavaScript.